Regional Weather Roundup
Issued by NWS Goodland, KS

Home | Current Version | Previous Version | Text Only | Print | Product List | Glossary Off
Versions: 1 2 3 4 5 6 7 8 9 10 11 12 13 14 15 16 17 18 19 20 21 22 23 24 25 26 27 28 29 30 31 32 33 34 35 36 37 38 39 40 41 42 43 44 45 46 47 48 49 50

000
ASUS43 KGLD 281408
RWRGLD

GOODLAND FORECAST AREA HOURLY WEATHER ROUNDUP
NATIONAL WEATHER SERVICE GOODLAND KS
800 AM MDT FRI AUG 28 2015

...OFFICIAL OBSERVATIONS...

CITY           SKY/WX    TMP DP  RH WIND       PRES   REMARKS
GOODLAND KS    SUNNY     68  56  65 NW12      30.06R
HILL CITY KS   SUNNY     73  65  75 NW9       29.95R
IMPERIAL NEB   SUNNY     68  56  65 NW12      30.03R
MCCOOK NEB     SUNNY     67  60  78 NW15      29.98R
AKRON CO       SUNNY     65  57  75 W12       30.16R
BURLINGTON CO  MOSUNNY   67  55  65 NW9       30.13R
LIMON CO       SUNNY     64  55  72 NW10      30.22R
$$

...UNOFFICIAL OBSERVATIONS...

CITY           SKY/WX    TMP DP  RH WIND       PRES   REMARKS
COLBY KS       SUNNY     70  61  73 W13       30.03S
GOVE KS          N/A     69  32  25 MISG        N/A
LENORA KS        N/A     70  32  24 MISG        N/A
NORTON KS      SUNNY     70  61  73 NW12      29.94R
SHARON SPRINGS   N/A     70  60  70 W9          N/A
KIT CARSON CO    N/A     69  58  67 MISG        N/A
YUMA CO          N/A     66  60  80 NW10        N/A
$$


USA.gov is the U.S. government's official web portal to all federal, state and local government web resources and services.